TimePST,TemperatureF,Dew PointF,Humidity,Sea Level PressureIn,VisibilityMPH,Wind Direction,Wind SpeedMPH,Gust SpeedMPH,PrecipitationIn,Events,Conditions,WindDirDegrees,DateUTC
12:53 AM,32.0,27.0,82,30.15,8.0,East,20.7,-,N/A,,Clear,90,2013-01-09 08:53:00
1:53 AM,34.0,28.9,82,30.15,9.0,East,21.9,32.2,N/A,,Clear,90,2013-01-09 09:53:00
2:53 AM,33.1,28.0,82,30.11,8.0,ESE,21.9,-,N/A,,Clear,110,2013-01-09 10:53:00
3:53 AM,35.1,28.9,78,30.08,10.0,ESE,26.5,-,N/A,,Overcast,110,2013-01-09 11:53:00
6:53 AM,35.1,28.9,78,30.04,10.0,East,15.0,-,N/A,,Overcast,100,2013-01-09 14:53:00
7:53 AM,35.1,28.9,78,30.02,9.0,East,15.0,-,N/A,,Overcast,90,2013-01-09 15:53:00
8:53 AM,36.0,30.0,79,29.97,10.0,East,13.8,23.0,0.00,,Overcast,100,2013-01-09 16:53:00
9:26 AM,35.6,30.2,81,29.89,10.0,East,12.7,-,N/A,,Overcast,80,2013-01-09 17:26:00
9:33 AM,37.4,30.2,75,29.89,10.0,East,9.2,-,N/A,,Overcast,90,2013-01-09 17:33:00
9:53 AM,37.9,32.0,79,29.94,10.0,East,10.4,-,N/A,,Overcast,90,2013-01-09 17:53:00
10:53 AM,37.0,30.9,79,29.91,10.0,ESE,12.7,-,0.04,,Overcast,110,2013-01-09 18:53:00
11:53 AM,36.0,30.0,79,29.86,10.0,East,11.5,-,N/A,,Overcast,80,2013-01-09 19:53:00
12:53 PM,39.0,30.9,73,29.81,10.0,SE,17.3,-,N/A,,Overcast,140,2013-01-09 20:53:00
1:53 PM,37.0,30.9,79,29.79,10.0,SE,17.3,20.7,N/A,,Overcast,130,2013-01-09 21:53:00
2:53 PM,37.9,32.0,79,29.76,10.0,SSE,18.4,-,N/A,,Partly Cloudy,150,2013-01-09 22:53:00
3:53 PM,37.9,32.0,79,29.76,10.0,SSE,11.5,-,N/A,,Mostly Cloudy,160,2013-01-09 23:53:00
4:18 PM,37.4,32.0,81,29.73,10.0,Variable,3.5,-,N/A,,Overcast,0,2013-01-10 00:18:00
4:53 PM,35.1,30.9,85,29.78,6.0,North,16.1,25.3,0.00,Snow,Light Snow,350,2013-01-10 00:53:00
5:00 PM,33.8,30.2,87,29.74,6.0,North,11.5,23.0,0.00,Snow,Light Snow,350,2013-01-10 01:00:00
5:51 PM,33.8,30.2,87,29.74,10.0,South,6.9,-,0.01,,Overcast,190,2013-01-10 01:51:00
5:53 PM,33.1,30.9,92,29.80,10.0,South,8.1,-,0.01,,Overcast,190,2013-01-10 01:53:00
6:48 PM,33.8,30.2,87,29.75,2.5,SSW,5.8,-,0.00,Snow,Light Snow,210,2013-01-10 02:48:00
6:53 PM,32.0,30.9,96,29.81,2.0,Calm,Calm,-,0.00,Snow,Light Snow,0,2013-01-10 02:53:00
6:55 PM,32.0,30.2,93,29.75,1.8,SSW,3.5,-,0.00,Snow,Light Snow,210,2013-01-10 02:55:00
7:02 PM,32.0,32.0,100,29.75,1.2,Calm,Calm,-,N/A,Snow,Light Snow,0,2013-01-10 03:02:00
7:05 PM,32.0,32.0,100,29.75,1.2,Calm,Calm,-,0.00,Snow,Light Snow,0,2013-01-10 03:05:00
7:10 PM,32.0,30.2,93,29.75,1.2,Calm,Calm,-,0.00,Snow,Light Snow,0,2013-01-10 03:10:00
7:17 PM,32.0,30.2,93,29.75,1.5,West,3.5,-,0.00,Snow,Light Snow,280,2013-01-10 03:17:00
7:32 PM,32.0,32.0,100,29.76,2.5,Variable,5.8,-,0.01,Snow,Light Snow,0,2013-01-10 03:32:00
7:39 PM,33.8,30.2,87,29.76,4.0,NNW,12.7,16.1,N/A,Snow,Light Snow,340,2013-01-10 03:39:00
7:43 PM,32.0,30.2,93,29.76,2.5,NNW,19.6,26.5,0.01,Snow,Light Snow,340,2013-01-10 03:43:00
7:51 PM,30.2,28.4,93,29.76,1.0,NNW,25.3,33.4,0.01,Snow,Light Snow,340,2013-01-10 03:51:00
7:53 PM,30.9,28.9,92,29.82,1.0,NNW,24.2,33.4,0.01,Snow,Light Snow,340,2013-01-10 03:53:00
8:01 PM,30.2,28.4,93,29.75,2.0,NNW,23.0,31.1,0.00,Snow,Light Snow,340,2013-01-10 04:01:00
8:14 PM,30.2,26.6,86,29.75,5.0,NNW,21.9,-,0.00,Snow,Light Snow,340,2013-01-10 04:14:00
8:53 PM,30.9,24.1,76,29.81,10.0,NNW,18.4,-,0.00,,Overcast,340,2013-01-10 04:53:00
9:53 PM,30.0,24.1,79,29.83,10.0,NW,10.4,-,N/A,,Overcast,320,2013-01-10 05:53:00
10:53 PM,28.9,23.0,78,29.82,10.0,North,13.8,-,N/A,,Overcast,350,2013-01-10 06:53:00
11:53 PM,28.9,24.1,82,29.83,10.0,NNW,15.0,-,N/A,,Overcast,340,2013-01-10 07:53:00